EW7304 Weather Reports


Display with metric or nautical units.
time (UTC)temp
F
wind
direction
speed
MPH
gust
MPH
rain 1hr
in
rain 24hr
in
rain mn
in
humidity
%
barometer
mb
20260905093044 78 228 0.0 0.0 0.00 0.01 0.00 95 1012.6
20260905091555 78 228 0.0 0.0 0.00 0.01 0.00 94 1012.5
20260905090041 79 228 0.0 0.0 0.00 0.01 0.00 94 1012.5
20260905084540 79 227 0.0 0.0 0.00 0.01 0.00 94 1012.5
20260905083038 79 228 0.0 0.0 0.00 0.01 0.00 94 1012.3
20260905081538 79 227 0.0 0.0 0.00 0.01 0.00 93 1012.4
20260905080040 79 228 0.0 0.0 0.00 0.01 0.00 93 1012.4
20260905074546 80 228 0.0 0.0 0.00 0.01 0.00 93 1012.4
20260905073051 80 227 0.0 0.0 0.00 0.01 0.00 92 1012.5
20260905071532 80 228 0.0 0.0 0.00 0.01 0.00 92 1012.8
20260905070030 80 227 0.0 0.0 0.00 0.01 0.00 92 1012.9
20260905064526 81 227 0.0 0.0 0.00 0.01 0.00 91 1013.1
20260905063026 81 228 0.0 0.0 0.00 0.01 0.00 91 1013.1
20260905061523 81 227 0.0 0.0 0.00 0.01 0.00 91 1013.2
20260905060022 81 227 0.0 0.0 0.00 0.01 0.00 90 1013.2
20260905054520 82 227 0.0 0.0 0.00 0.01 0.00 90 1013.3
20260905053023 82 227 0.0 0.0 0.00 0.01 0.00 90 1013.3
20260905051519 82 227 0.0 0.0 0.00 0.01 0.00 90 1013.3
20260905050019 82 227 0.0 0.0 0.00 0.01 0.00 90 1013.2
20260905044520 82 227 0.0 0.0 0.00 0.01 0.01 90 1013.3
20260905043016 82 227 0.0 0.0 0.00 0.01 0.01 89 1013.3
20260905041515 83 227 0.0 0.0 0.00 0.01 0.01 89 1013.5
20260905040019 83 227 0.0 0.0 0.00 0.01 0.01 89 1013.6
20260905034514 83 227 0.0 0.0 0.00 0.01 0.01 89 1013.6
20260905033026 83 227 0.0 0.0 0.00 0.01 0.01 88 1013.6
20260905031521 83 167 0.0 0.0 0.00 0.01 0.01 88 1013.6
20260905030013 83 77 0.0 0.0 0.00 0.01 0.01 87 1013.6
20260905024513 83 77 0.0 0.0 0.00 0.01 0.01 87 1013.5
20260905023037 84 77 0.0 0.0 0.00 0.01 0.01 85 1013.4
20260905021513 84 77 0.0 0.0 0.00 0.01 0.01 84 1013.4
20260905020021 84 56 0.0 0.0 0.00 0.01 0.01 83 1013.0
20260905014510 84 56 0.0 0.0 0.00 0.01 0.01 82 1013.0
20260905013009 85 56 0.0 0.0 0.00 0.01 0.01 81 1012.9
20260905011509 85 54 0.0 0.0 0.00 0.01 0.01 81 1012.7
20260905010009 86 89 0.0 1.0 0.00 0.01 0.01 81 1012.5
20260905004514 86 90 0.0 4.0 0.00 0.01 0.01 80 1012.5
20260905003007 87 80 0.0 1.0 0.00 0.01 0.01 80 1012.3
20260905001516 87 77 0.0 3.0 0.00 0.01 0.01 79 1012.4
20260905000006 88 84 0.0 3.0 0.00 0.01 0.01 78 1012.3
20260904234507 89 67 0.0 3.0 0.00 0.01 0.01 77 1012.2
20260904233005 88 66 0.0 4.0 0.00 0.01 0.01 77 1012.3
20260904231511 90 34 1.0 4.0 0.00 0.01 0.01 72 1012.2
20260904230003 91 75 0.0 3.0 0.00 0.01 0.01 71 1012.2
20260904224502 90 86 0.0 3.0 0.00 0.01 0.01 72 1012.2
20260904223003 89 96 0.0 4.0 0.00 0.01 0.01 73 1012.3
20260904221503 89 84 0.0 4.0 0.00 0.01 0.01 77 1012.2
20260904220001 89 58 0.0 6.0 0.00 0.01 0.01 75 1012.1
20260904214558 90 90 2.0 5.0 0.00 0.01 0.01 74 1012.2
20260904213057 91 46 0.0 5.0 0.00 0.01 0.01 72 1012.4
20260904211559 91 25 1.0 5.0 0.00 0.01 0.01 70 1012.5
20260904210107 91 32 1.0 4.0 0.00 0.01 0.01 72 1012.7
20260904204556 90 81 1.0 5.0 0.00 0.02 0.01 72 1012.9
20260904203054 89 72 0.0 3.0 0.01 0.02 0.01 72 1013.2
20260904201554 88 49 0.0 4.0 0.01 0.02 0.01 75 1013.4
20260904200056 88 59 0.0 6.0 0.01 0.02 0.01 75 1013.3
20260904194558 85 95 0.0 5.0 0.01 0.07 0.01 86 1013.5
20260904193051 85 46 2.0 5.0 0.00 0.06 0.00 76 1013.8
20260904191551 88 113 0.0 5.0 0.00 0.06 0.00 75 1014.0
20260904190050 89 106 0.0 3.0 0.00 0.06 0.00 71 1014.1
20260904184555 89 72 0.0 5.0 0.00 0.06 0.00 74 1014.2
20260904183049 88 23 1.0 3.0 0.00 0.06 0.00 77 1014.3
20260904181555 90 337 0.0 4.0 0.00 0.06 0.00 75 1014.6
20260904180058 91 260 1.0 5.0 0.00 0.06 0.00 68 1014.9
20260904174603 90 214 1.0 4.0 0.00 0.06 0.00 74 1015.0
20260904173041 90 216 0.0 5.0 0.00 0.06 0.00 76 1015.0
20260904171539 88 60 0.0 3.0 0.00 0.06 0.00 76 1015.0
20260904170034 87 290 0.0 2.0 0.00 0.06 0.00 81 1015.0
20260904164530 85 219 0.0 0.0 0.00 0.06 0.00 82 1015.3
20260904163027 84 36 0.0 1.0 0.00 0.06 0.00 83 1015.4
20260904161525 84 67 0.0 1.0 0.00 0.06 0.00 85 1015.2
20260904160024 84 86 0.0 2.0 0.00 0.06 0.00 85 1015.2
20260904154521 84 119 0.0 1.0 0.00 0.06 0.00 87 1015.2
20260904153026 84 103 0.0 2.0 0.00 0.06 0.00 88 1015.2
20260904151515 83 56 0.0 1.0 0.00 0.06 0.00 88 1014.7
20260904150015 83 101 0.0 3.0 0.00 0.06 0.00 89 1014.6
20260904144513 83 85 0.0 1.0 0.00 0.06 0.00 90 1014.6
20260904143011 82 86 0.0 0.0 0.00 0.06 0.00 91 1014.5
20260904141509 82 86 0.0 0.0 0.00 0.06 0.00 91 1014.4
20260904140007 82 169 0.0 0.0 0.00 0.06 0.00 92 1014.3
20260904134504 82 169 0.0 0.0 0.00 0.06 0.00 93 1014.2
20260904133005 82 169 0.0 0.0 0.00 0.06 0.00 92 1014.1
20260904131503 82 169 0.0 0.0 0.00 0.06 0.00 92 1014.1
20260904130002 82 169 0.0 0.0 0.00 0.06 0.00 93 1014.0
20260904124610 80 169 0.0 0.0 0.00 0.06 0.00 95 1014.0
20260904123113 79 200 0.0 0.0 0.00 0.06 0.00 95 1013.6
20260904121602 79 200 0.0 0.0 0.00 0.06 0.00 95 1013.3
20260904114555 79 200 0.0 0.0 0.00 0.06 0.00 95 1013.2
20260904113059 80 200 0.0 0.0 0.00 0.06 0.00 94 1013.3
20260904111552 80 200 0.0 0.0 0.00 0.06 0.00 94 1013.2
20260904110056 80 200 0.0 0.0 0.00 0.06 0.00 94 1013.3
20260904104559 80 200 0.0 0.0 0.00 0.06 0.00 94 1013.3
20260904103052 80 200 0.0 0.0 0.00 0.06 0.00 93 1013.0
20260904101600 80 200 0.0 0.0 0.00 0.06 0.00 93 1013.0
20260904100047 80 200 0.0 0.0 0.00 0.06 0.00 93 1012.8
20260904094545 80 200 0.0 0.0 0.00 0.06 0.00 93 1012.8